User: anonymous   Login
Location: Bernadets
(43.3537°N, 0.3167°E)
Time: 19:02:20
(UTC+00:00)
Language:

Cosmos 1605 Rocket - Orbit

View from above orbital plane
View from above orbital plane
View from above satellite
View from above satellite

Ground track
Ground track

The orbit data is extracted from the following two-line orbital elements,

1 15360U 84109B   22022.52742957  .00000109  00000-0  94447-4 0  9998
2 15360  82.9376 240.0276 0042096  34.7712 325.6183 13.76786480872531
Epoch (UTC): 22 January 2022 12:39:29
Eccentricity: 0.0042096
inclination: 82.9376°
perigee height: 944 km
apogee height: 1006 km
right ascension of ascending node: 240.0276°
argument of perigee: 34.7712°
revolutions per day: 13.76786480
mean anomaly at epoch: 325.6183°
orbit number at epoch: 87253

The dashed part of the orbit path shows where the satellite is in the earth's shadow,  

DLR